AQI (47)

Current Conditions for Foresthill, CA. Partly Cloudy, Dry   
Visibility: 10 miles
Cloud ht: 7,500 ft Foresthill Advisory text:

  Summary / Temperature 

Current Temperature
43.0°F
6.1°C
(24/hr Ago)
42.6°F
(Apparent temp)
39.8°F
Cool
Wind Chill Graphs
43.0°F 
Wind Chill-Avg
43.6°F 6.4°C
 --- Virtual Temp: 44.4°F ---

 Temp Rate:

 24/hr Difference:

 Avg Running Temp:

 Todays High:

 Todays Low:

 Y-days High:

 Y-days Low:

 Todays WChill:

 Y-days WChill:

 Evapotranspiration:

-0.6°F/hr 

+0.4°F

43.6°F

45.3°F 12:53pm

33.6°F 5:20am

44.4°F 2:48pm

31.2°F 4:55am

22.4°F 6:33am

21.7°F 5:30am

0.038 in

115' Above Ground

 Temperature:

 6'AGL VRS 115'AGL:

 Avg Running Temp:

 Humidity:

 Todays High:

 Todays Low:

 Y-days High:

 Y-days Low:

43.0°F 

0°F

43.4°F

64% 

47.0°F 12:47pm

36.0°F 1:26am

46.0°F 10:37am

34.0°F 3:07am

Temp & Humidity Graphs

  Wind 

Wind Speed

 Calm

Gusting to

 None

Calm

147°  

Calm

 Avg speed:

 Wind Run:

 Peak Gust:

Calm 

22.0 miles

  20.0 mph 2:06am

  Almanac  

Moon age: 4 days,11 hours,54 minutes,21%

Waxing Crescent
21%
Illuminated
4 days in cycle

 Moonrise:

 Moonset:

 Sunrise:

 Sunset:

 Solar Noon:

9:58am

9:49pm

7:15am

5:09pm

12:15pm

1min 43s more daylight tomorrow 

  Solar Radiation 

(Current Solar)
  47 W/m2 (57%)
(Todays High)
 554 W/m2@12:15pm
Feels like: 44.1°F in the sun

Rain

 Rain Today:

 Rain Rate (/hr):

 Rain last hour:

 Rain Yesterday:

 This Month:

 Season Total:

1 Day Since Last Rain Day

0.00 in

0.000 in

0.00 in

0.00 in

6.89 in

20.20 in

Updated Time

Updated: 1/21/18  4:23pm

(Updated  sec ago)

Humidity & Barometer

 Humidity:

 Wetbulb:

 Dew Point:

 Barometer:

71% 

39.4°F 

34.2°F 

30.423 inHg 

 Baro Trend:  Steady 
Northern Calif
Preparedness
Fire 
Level 

    UV Index  

(Current UV)
0.0  None
(Todays High) @ 12:13pm
1.9   Low

National Weather Service Forecast

This
Afternoon
This Afternoon: Chance Light Rain
Chance Light Rain
Tonight

Tonight: Light Rain Likely
Light Rain Likely
Monday

Monday: Chance Rain Showers then Partly Sunny
Chance Rain Showers
Monday
Night
Monday Night: Partly Cloudy
Partly Cloudy
Tuesday

Tuesday: Mostly Sunny
Mostly Sunny
Tuesday
Night
Tuesday Night: Mostly Cloudy then Chance Light Rain
Mostly Cloudy then Chance Light Rain
Hi 47 °F Lo 38 °F Hi 45 °F Lo 33 °F Hi 53 °F Lo 38 °F

Foresthill Probe 2 Stats  
Foresthill Probe 2: is located on Thomas Street
at 3000 feet. The main Foresthill Weather site
is located on Melody ln at the 2860 foot elevation

Calm
42.4°F
5.8°C
Temp Rate:
-1.0°F
Calm
Gusting to
None
(Humidity)
75%
Calm
170°  
Updated: 21/01/18 - 16:20:00
 Todays High: 45.6°F 13:11
 Todays Low: 31.1°F 06:07
 Rain Today: 0.00 in
 Season Total: 20.98 in

Foresthill Wx: Monthly,Yearly, Highs and Lows 

Foresthill  
This Weather Data is coming from the main Foresthill
Weather site located on Melody ln at the 2860 foot
elevation
Not Foresthill Probe 2
Weather Data
Month
  High
Month
  Low
Year
High
Year
Low
Temp 63.0°F
1/14/18
31.2°F
1/20/18
63.0°F
1/14/18
31.2°F
1/20/18
Humidity 100%
1/8/18
37%
1/1/18
100%
1/8/18
37%
1/1/18
Heat Index 64.3°F
1/14/18
36.3°F
1/21/18
64.3°F
1/14/18
36.3°F
1/21/18
Wind Chill 63.0°F
1/14/18
21.7°F
1/20/18
63.0°F
1/14/18
21.7°F
1/20/18
Wind Gust 31 mph
1/16/18
0 mph
1/1/18
31 mph
1/16/18
0 mph
1/1/18
Barometer 30.45 in
1/21/18
29.63 in
1/9/18
30.45 in
1/21/18
29.63 in
1/9/18
ET 0.08 in
1/1/18
0.00 in
1/1/18
0.08 in
1/1/18
0.00 in
1/1/18
Dew Point 52.5°F
1/5/18
23.8°F
1/21/18
52.5°F
1/5/18
23.8°F
1/21/18
Pacific Satellite US Radar Satellite Imagery Sacramento,CA.  (click to enlarge)
NWS Weather Forecast - Summary
Updated: Sun Jan 21 2018 .DISC - 3:52pm (PST)
Current Interstate Highway Conditions for I-80 & US-50

[I 80: IN THE SAN FRANCISCO BAY AREA - SOLANO CO]
no traffic restrictions are reported for this area.


[I 80: IN THE NORTHERN CALIFORNIA AREA & SIERRA NEVADA]
no traffic restrictions are reported for this area.

[US 50: IN THE SACRAMENTO VALLEY & THE LAKE TAHOE BASIN]
no traffic restrictions are reported for this area.
NWS Weather Forecast: This Afternoon and Tonight (Updated: Sun, 21-Jan-2018 2:06pm PST)
This
Afternoon
This Afternoon: Chance Light Rain
Chance Light Rain

Hi 47 °F
NWS forecast: A chance of rain. Mostly cloudy. High near 47, with temperatures falling to around 40 in the afternoon. South wind around 7 mph. Chance of precipitation is 50%. New rainfall amounts less than a tenth of an inch possible.
Tonight

Tonight: Light Rain Likely
Light Rain Likely

Lo 38 °F
NWS forecast: Rain likely before 4am, then a chance of rain showers. Cloudy, with a low around 38. Southeast wind 5 to 10 mph. Chance of precipitation is 60%. New rainfall amounts between a tenth and quarter of an inch possible.
YR.NO 10 Day Weather forecast
Last update: 01/21/2018 @ 11:40
Next update: 01/22/2018 @ 00:00
Provided by: 22
      Temperature Precipitation Pressure Wind  
Today
01/21/2018
15:00 18:00 43°F   30.33 inHg Light breeze from southwest 4 mph
  18:00 00:00 37°F   30.34 inHg Light breeze from southeast 4 mph
    (Click to enlarge)
meteogram

    Forecast for next 9 days

      Temperature Precip Pressure Wind  
Monday
01/22/2018
00:00 06:00 37°F 0.17 in 30.38 inHg Light breeze from east-southeast 5 mph
  06:00 12:00 36°F 0.05 in 30.34 inHg Light breeze from east-southeast 6 mph
  12:00 18:00 43°F 0.02 in 30.35 inHg Light breeze from south 6 mph
  18:00 00:00 41°F   30.31 inHg Light air from east-northeast 2 mph
      Temperature Precip Pressure Wind  
Tuesday
01/23/2018
00:00 06:00 28°F   30.31 inHg Light breeze from east-northeast 4 mph
  06:00 12:00 27°F   30.27 inHg Light breeze from east-northeast 5 mph
  12:00 18:00 50°F   30.25 inHg Light air from southwest 3 mph
  18:00 00:00 39°F   30.21 inHg Light air from east 2 mph
      Temperature Precip Pressure Wind  
Wednesday
01/24/2018
00:00 06:00 34°F   30.19 inHg Light breeze from east 5 mph
  04:00 10:00 36°F   30.14 inHg Light breeze from east 5 mph
  10:00 16:00 46°F 0.20 in 30.09 inHg Light breeze from south 7 mph
  16:00 22:00 39°F 0.58 in 30.01 inHg Gentle breeze from southwest 9 mph
  22:00 04:00 37°F 0.04 in 30.06 inHg Light breeze from southwest 7 mph
      Temperature Precip Pressure Wind  
Thursday
01/25/2018
04:00 10:00 30°F   30.10 inHg Light air from east-southeast 3 mph
  10:00 16:00 37°F 0.14 in 30.14 inHg Light breeze from south 6 mph
  16:00 22:00 34°F 0.20 in 30.14 inHg Light breeze from south 7 mph
  22:00 04:00 30°F 0.04 in 30.24 inHg Light breeze from south-southeast 5 mph
      Temperature Precip Pressure Wind  
Friday
01/26/2018
04:00 10:00 28°F   30.31 inHg Light air from east-northeast 3 mph
  10:00 16:00 36°F   30.39 inHg Light air from north 2 mph
  16:00 22:00 37°F   30.35 inHg Light breeze from west-northwest 6 mph
  22:00 04:00 23°F   30.35 inHg Gentle breeze from east-northeast 8 mph
      Temperature Precip Pressure Wind  
Saturday
01/27/2018
04:00 10:00 19°F   30.36 inHg Light breeze from east-northeast 6 mph
  10:00 16:00 43°F   30.39 inHg Light air from east-northeast 2 mph
  16:00 22:00 46°F   30.33 inHg Light air from west-southwest 2 mph
  22:00 04:00 30°F   30.37 inHg Light breeze from east-northeast 6 mph
      Temperature Precip Pressure Wind  
Sunday
01/28/2018
04:00 10:00 30°F   30.33 inHg Light breeze from east-northeast 7 mph
  10:00 16:00 48°F   30.31 inHg Light breeze from east-northeast 4 mph
  16:00 22:00 54°F   30.22 inHg Light air from west-southwest 2 mph
  22:00 04:00 39°F   30.22 inHg Light breeze from east-northeast 5 mph
      Temperature Precip Pressure Wind  
Monday
01/29/2018
04:00 10:00 37°F   30.20 inHg Light breeze from east-northeast 5 mph
  10:00 16:00 52°F   30.20 inHg Light air from east 2 mph
  16:00 22:00 54°F   30.15 inHg Light air from south-southeast 3 mph
  22:00 04:00 43°F   30.18 inHg Light breeze from east 5 mph
      Temperature Precip Pressure Wind  
Tuesday
01/30/2018
04:00 10:00 41°F 0.06 in 30.15 inHg Light breeze from east-southeast 6 mph
  10:00 16:00 41°F   30.21 inHg Light breeze from south 4 mph
  16:00 22:00 43°F   30.17 inHg Light breeze from west-northwest 6 mph
  22:00 04:00 28°F   30.19 inHg Light breeze from northeast 4 mph

NOAA Local Storm Report
KYBURZ   ( More )
DATE
01/19/2018
TIME
8:00 AM
COUNTY
EL DORADO
STATE
CA
GEOGRAPHIC
38.77N 120.30W
SOURCE
TRAINED SPOTTER
SNOW ESTIMATED AT 1.3 INCH
trained spotter reported 1. 25 inches of snow at kyburz, elevation 4000 feet.
How Close Are We To this Month's Temperature Record ?
Updated Sunday, Jan 21, 2018- 4:20:00 PM

Current Temperature: 43.0°F

January's High: Temperature Record 71.3°F - Set on Sat, Jan 24, 2015 - 3:19:00 PM
We are currently 28.3°F Less than this Month's record High

January's Low: Temperature Record 24.7°F - Set on Sun, Jan 13, 2013 - 7:29:00 AM
We are currently 18.3°F More than this Month's record Low

Weather History For Sunday, January 21, 2018


On this Day - In Weather History ...
Data courtesy of weatherforyou.com
powered by Cumulus v1.9.3 (1059)
Ambient Weather VWS v14.00
Top Contact Website Map Copyright © 2007 - 2018 Foresthillweather.com Never base important decisions on this or any weather information obtained from the Internet